Regional Weather Roundup
Issued by NWS

Home | Current Version | Previous Version | Text Only | Print | Product List | Glossary Off
Versions: 1 2 3 4 5 6 7 8 9 10 11 12 13 14 15 16 17 18 19 20 21 22 23 24 25 26 27 28 29 30 31 32 33 34 35 36 37 38 39 40 41 42 43 44 45 46 47 48 49 50

402
ASUS45 KCYS 210910
RWRWY

WYOMING REGIONAL WEATHER ROUNDUP
NATIONAL WEATHER SERVICE CHEYENNE WY
300 AM MDT FRI JUL 21 2017

NOTE:  "FAIR" INDICATES FEW OR NO CLOUDS BELOW 12,000 FEET
WITH NO SIGNIFICANT WEATHER AND/OR OBSTRUCTIONS TO VISIBILITY.

WYZ001-211000-
YELLOWSTONE NATIONAL PARK

CITY           SKY/WX    TMP DP  RH WIND       PRES   REMARKS
LK YELLOWSTONE   N/A     41  41 100 NW3       30.28R
W YELLOWSTONE  NOT AVBL

$$
WYZ002>013-054>058-071-098>099-211000-
NORTHERN WYOMING

CITY           SKY/WX    TMP DP  RH WIND       PRES   REMARKS
JACKSON        FAIR      52  50  93 E3        30.18F
CODY           FAIR      56  53  90 CALM      30.05R
GREYBULL       FAIR      61  59  93 CALM      29.96S
WORLAND        FAIR      61  57  87 S6        29.98R
SHERIDAN       FAIR      62  53  72 W6        29.89R
BUFFALO        FAIR      65  48  54 CALM      29.96F
GILLETTE       FAIR      68  57  68 S17G23    29.93F
HULETT         FAIR      64  59  82 W7        29.94S
NEWCASTLE      FAIR      64  59  82 S7        29.97S

$$
WYZ014>020-022>026-101>103-211000-
CENTRAL WYOMING

CITY           SKY/WX    TMP DP  RH WIND       PRES   REMARKS
BIG PINEY      MOCLDY    55  54  96 CALM      30.26F
PINEDALE       CLOUDY    55  55 100 N5        30.28S
DUBOIS         FAIR      50  45  81 NW5       30.23S
LANDER         FAIR      62  56  80 CALM      30.12R
RIVERTON       FAIR      60  59  96 N3        30.10F
CASPER         FAIR      68  52  56 SW16      30.07S
DOUGLAS        FAIR      64  59  83 CALM      30.04F

$$
WYZ021-027>030-104>119-211000-
SOUTHERN WYOMING

CITY           SKY/WX    TMP DP  RH WIND       PRES   REMARKS
EVANSTON       FAIR      66  50  56 E3        30.24S
KEMMERER         N/A     57  50  77 N8        30.25F
FORT BRIDGER   FAIR      61  50  65 S8        30.25F
ROCK SPRINGS   MOCLDY    63  51  65 S6        30.23F
RAWLINS        FAIR      60  54  80 SW3       30.24F
SARATOGA       FAIR      59  54  82 SE8       30.28F
LARAMIE        FAIR      54  52  93 S3        30.27F
CHEYENNE       FAIR      66  53  63 W13       30.17F
TORRINGTON     LGT RAIN  67  61  81 SW8       29.99F
PINE BLUFFS    FAIR      59  54  82 CALM      30.11F

$$




USA.gov is the U.S. government's official web portal to all federal, state and local government web resources and services.